Zurück zum Katalog

GYEONGGISAT-1

AktivWissenschaftSSO
NORAD 66771·PAYLOAD·🇰🇷 South Korea

Gestartet Nov 28, 2025 von Vandenberg Space Force Base

Loading…

Nächste Überflüge (nächste 24 Stunden)

TLE

AktuellSource: Space-Track

Epoche: Sep 14, 2026, 16:09 UTC

1 66771U 25276DK  26257.67336112  .00004698  00000-0  21147-3 0  9995
2 66771  97.4157 330.2857 0000315  15.8370 344.2876 15.21568712 44047

Verfolge GYEONGGISAT-1 in Echtzeit mit AllMySat

Download on the App Store